Вернуться в каталог

STARLINK-4076

АктивенСвязьVLEO
NORAD 52667·PAYLOAD·🇺🇸 United States

Запущен May 18, 2022 с Cape Canaveral Space Force Station

Loading…

Ближайшие Пролёты (ближайшие 24 часа)

TLE

СвежийSource: CelesTrak SupGP

Эпоха: Sep 15, 2026, 02:20 UTC

1 52667C 22053M   26258.09770833 -.00005521  00000+0 -34634-3 0  2583
2 52667  53.1608  23.2052 0001185  88.8781 233.1768 15.08829361    14

Отслеживайте STARLINK-4076 в реальном времени с AllMySat

Download on the App Store